This demonstration page uses our WeatherBlox Daily Observations layout. Learn more.

Left ArrowRight Arrow

39.51506, -84.39828

Hourly Observations for May 3, 2017

Temp ( °F °C ) Dew Point ( °F °C ) Humidity (%) Winds ( mph kmh ) Pressure ( in mb ) Visibility ( mi km ) Precip ( " mm )
12:15 am 00:15 Cloudy 54 12.4 36 2.3 50 50 W 5 7 30.03 1017 10 16 N/A
12:35 am 00:35 Cloudy 54 12.4 37 2.5 51 51 W 7 11 30.03 1017 10 16 N/A
12:55 am 00:55 Cloudy 54 12 36 2.1 51 51 WNW 6 9 30.03 1017 10 16 N/A
1:15 am 01:15 Cloudy 52 11 35 1.8 53 53 W 5 7 30.03 1017 10 16 N/A
1:35 am 01:35 Cloudy 52 11 35 1.4 52 52 W 8 13 30.03 1017 10 16 N/A
1:55 am 01:55 Partly Cloudy 49 9.6 33 0.5 53 53 WNW 7 11 30.06 1018 10 16 N/A
2:15 am 02:15 Clear 49 9.6 35 1.5 57 57 WNW 6 9 30.06 1018 10 16 N/A
2:35 am 02:35 Clear 49 9.6 35 1.7 58 58 NW 6 9 30.06 1018 10 16 N/A
2:55 am 02:55 Clear 49 9.6 36 2.4 61 61 N N/A 30.06 1018 10 16 N/A
3:15 am 03:15 Clear 47 8.2 35 1.8 64 64 W 6 9 30.06 1018 10 16 N/A
3:35 am 03:35 Clear 47 8.1 36 2.2 67 67 W 3 6 30.06 1018 10 16 N/A
3:55 am 03:55 Clear 46 7.8 35 1.9 67 67 WNW 3 6 30.06 1018 10 16 N/A
4:15 am 04:15 Clear 44 6.8 34 1.3 68 68 W 5 7 30.09 1019 10 16 N/A
4:35 am 04:35 Clear 44 6.6 35 1.5 70 70 W 5 7 30.09 1019 10 16 N/A
4:55 am 04:55 Clear 43 6.1 35 1.5 73 73 W 3 6 30.09 1019 10 16 N/A
5:15 am 05:15 Clear 43 6.1 35 1.5 73 73 NW 3 6 30.09 1019 10 16 N/A
5:35 am 05:35 Clear 42 5.5 34 1.3 75 75 W 3 6 30.09 1019 10 16 N/A
5:55 am 05:55 Clear 42 5.5 35 1.7 77 77 N N/A 30.12 1020 10 16 N/A
6:15 am 06:15 Clear 42 5.4 35 1.6 77 77 N N/A 30.12 1020 10 16 N/A
6:35 am 06:35 Clear 41 4.9 34 1.3 78 78 N N/A 30.12 1020 10 16 N/A
6:55 am 06:55 Sunny 42 5.5 36 2.3 80 80 N N/A 30.12 1020 10 16 N/A
7:15 am 07:15 Sunny 42 5.4 36 2.3 81 81 N N/A 30.12 1020 10 16 N/A
7:35 am 07:35 Sunny 43 6.3 36 2.2 75 75 N N/A 30.15 1021 10 16 N/A
7:55 am 07:55 Sunny 47 8.2 38 3.2 71 71 N N/A 30.15 1021 10 16 N/A
8:15 am 08:15 Sunny 47 8.2 37 2.6 68 68 NNW 7 11 30.18 1022 10 16 N/A
8:35 am 08:35 Sunny 49 9.6 37 3 64 64 NNW 8 13 30.18 1022 10 16 N/A
8:55 am 08:55 Sunny 49 9.6 37 2.6 62 62 NNW 7 11 30.18 1022 10 16 N/A
9:15 am 09:15 Sunny 49 9.6 36 2.1 60 60 N 5 7 30.18 1022 10 16 N/A
9:35 am 09:35 Sunny 49 9.6 35 1.6 58 58 N 7 11 30.21 1023 10 16 N/A
9:55 am 09:55 Sunny 50 10 35 1.8 57 57 NNE 7 11 30.21 1023 10 16 N/A
10:15 am 10:15 Partly Cloudy 51 10.3 35 1.6 55 55 NNE 6 9 30.21 1023 10 16 N/A
10:35 am 10:35 Partly Cloudy 52 11.1 35 1.6 52 52 NE 3 6 30.21 1023 10 16 N/A
10:55 am 10:55 Partly Cloudy 53 11.4 35 1.7 52 52 NNE 3 6 30.21 1023 10 16 N/A
11:15 am 11:15 Sunny 55 12.5 36 2.2 50 50 NE 3 6 30.21 1023 10 16 N/A
11:35 am 11:35 Sunny 55 12.5 35 1.8 48 48 NE 3 6 30.21 1023 10 16 N/A
11:55 am 11:55 Sunny 55 12.5 35 1.7 48 48 NNE 6 9 30.21 1023 10 16 N/A
12:15 pm 12:15 Sunny 55 12.6 35 1.8 48 48 NE 3 6 30.21 1023 10 16 N/A
12:35 pm 12:35 Sunny 55 12.5 33 0.8 45 45 E 3 6 30.21 1023 10 16 N/A
12:55 pm 12:55 Sunny 56 13.2 35 1.7 46 46 NNE 5 7 30.18 1022 10 16 N/A
1:15 pm 13:15 Partly Cloudy 57 13.8 35 1.8 44 44 ENE 8 13 30.18 1022 10 16 N/A
1:35 pm 13:35 Sunny 57 13.8 34 1.2 43 43 N N/A 30.18 1022 10 16 N/A
1:55 pm 13:55 Sunny 57 14 35 1.5 43 43 NNE 7 11 30.18 1022 10 16 N/A
2:15 pm 14:15 Sunny 60 15.3 35 1.4 39 39 ENE 3 6 30.18 1022 10 16 N/A
2:35 pm 14:35 Sunny 60 15.3 36 2 41 41 NE 5 7 30.15 1021 10 16 N/A
2:55 pm 14:55 Sunny 60 15.3 35 1.8 40 40 ENE 7 11 30.15 1021 10 16 N/A
3:15 pm 15:15 Sunny 60 15.3 35 1.7 40 40 NE 7 11 30.15 1021 10 16 N/A
3:35 pm 15:35 Partly Cloudy 60 15.3 35 1.6 40 40 ENE 6 9 30.12 1020 10 16 N/A
3:50 pm 15:50 Mostly Cloudy 60 15.3 36 2.2 41 41 E 3 6 30.12 1020 10 16 N/A
4:15 pm 16:15 Cloudy 59 15.1 36 2.2 42 42 ENE 9 15 30.12 1020 10 16 N/A
4:35 pm 16:35 Cloudy 57 14 35 1.5 43 43 ENE 9 15 30.09 1019 10 16 N/A
4:55 pm 16:55 Cloudy 57 13.8 35 1.7 44 44 E 10 17 30.09 1019 10 16 N/A
5:15 pm 17:15 Cloudy with Light Rain 57 13.8 37 2.9 48 48 NE 7 11 30.12 1020 10 16 N/A
5:35 pm 17:35 Cloudy with Drizzle 57 13.8 38 3.2 49 49 NE 8 13 30.12 1020 10 16 N/A
5:55 pm 17:55 Cloudy with Light Rain 56 13.2 40 4.2 55 55 E 3 6 30.18 1022 10 16 N/A
6:15 pm 18:15 Cloudy with Light Rain 55 12.6 41 5.1 61 61 E 7 11 30.18 1022 10 16 N/A
6:35 pm 18:35 Cloudy with Light Rain 55 12.5 43 5.9 64 64 ENE 7 11 30.15 1021 10 16 N/A
6:55 pm 18:55 Cloudy with Light Rain 55 12.5 44 6.4 67 67 ENE 6 9 30.15 1021 10 16 N/A
7:15 pm 19:15 Cloudy with Light Rain 55 12.5 46 7.5 72 72 ENE 3 6 30.15 1021 10 16 N/A
7:35 pm 19:35 Cloudy with Rain 55 12.5 46 7.6 72 72 E 3 6 30.15 1021 10 16 N/A
7:55 pm 19:55 Cloudy with Light Rain 55 12.5 46 8 74 74 ENE 5 7 30.15 1021 10 16 N/A
8:15 pm 20:15 Cloudy with Light Rain 55 12.5 47 8.1 75 75 ENE 7 11 30.15 1021 10 16 N/A
8:35 pm 20:35 Cloudy with Rain 52 11 45 7 77 77 NE 8 13 30.12 1020 10 16 N/A
8:55 pm 20:55 Cloudy with Rain 52 11 45 7.2 78 78 ENE 7 11 30.12 1020 10 16 N/A
9:15 pm 21:15 Cloudy with Rain 52 11 45 7.2 78 78 NNE 8 13 30.12 1020 10 16 N/A
9:35 pm 21:35 Cloudy with Rain 52 11 45 7.3 78 78 NE 7 11 30.12 1020 10 16 N/A
9:55 pm 21:55 Mostly Cloudy 52 11 45 7.1 77 77 NNE 6 9 30.12 1020 10 16 N/A
10:15 pm 22:15 Cloudy 52 11 45 7.1 77 77 N 5 7 30.12 1020 10 16 N/A
10:35 pm 22:35 Cloudy 52 11 45 7.2 78 78 NNE 6 9 30.12 1020 10 16 N/A
10:55 pm 22:55 Cloudy with Light Rain 52 11 45 7.2 78 78 NNE 9 15 30.09 1019 10 16 N/A
11:15 pm 23:15 Cloudy with Light Rain 52 11 45 7 77 77 N 8 13 30.12 1020 10 16 N/A
11:35 pm 23:35 Cloudy 53 11.8 45 7.4 75 75 NNE 8 13 30.09 1019 10 16 N/A
11:55 pm 23:55 Cloudy 55 12.5 46 8 74 74 NNE 9 15 30.09 1019 10 16 N/A

Powered by AerisWeather